Location: Austin
(30.3000°N, 97.7500°W)
Time: 07:19:48
(UTC-05:00)

NOAA 11 - Pass Details

Date: 16 June 2025
Orbit: 832 x 847 km, 98.6° (Epoch: 07 July)

Event Time Altitude Azimuth Distance (km) Brightness Sun altitude
Rises 04:02:04 0° 14° (NNE) 3,408 8.4 -25.4°
Reaches altitude 10° 04:04:27 10° 15° (NNE) 2,468 7.5 -25.0°
Maximum altitude 04:09:56 80° 102° (ESE) 858 4.2 -24.3°
Enters shadow 04:11:18 52° 179° (S) 1,033 4.3 -24.1°
